Wind_Speed
28 29 29 29 29 29 30 30 33 31 31 31 35 36 36 37 37 38 39 39 40 41 42 43 44 45 46 48 50 52 53 55 57 60 62 65 68 70 73 75 78 80 81 83
31 31 32 32 30 30 31 32 34 35 33 33 36 37 38 39 39 39 40 41 42 42 43 44 45 47 48 50 52 54 56 58 61 63 66 68 71 73 76 78 80 81 82 83
33 32 35 34 30 31 33 34 35 36 36 37 37 38 39 39 40 41 42 42 43 44 45 46 47 49 50 52 54 57 59 61 64 66 69 71 74 76 78 80 81 82 81 80
35 35 37 34 32 33 35 35 36 38 39 39 39 39 40 40 41 41 42 43 44 45 46 47 49 51 52 55 57 59 61 64 67 69 71 74 76 78 80 81 81 80 79 76
38 38 39 36 34 34 36 36 36 38 39 39 40 41 41 41 42 43 43 44 45 46 47 49 51 52 54 57 59 62 64 66 69 72 74 76 78 79 80 80 79 77 75 72
39 40 41 38 36 36 38 38 36 38 39 40 40 41 41 42 42 43 44 45 46 47 49 50 52 54 56 59 61 64 66 69 71 74 76 78 79 80 80 79 76 74 70 67
40 42 42 40 39 39 40 40 40 39 39 40 40 41 41 42 42 43 44 46 47 48 50 52 54 56 58 61 64 66 68 70 73 75 77 78 79 79 78 76 73 70 67 63
40 42 42 41 41 41 41 41 41 41 41 41 41 41 41 42 43 44 46 47 48 49 51 54 56 58 61 63 66 68 70 72 74 76 78 79 78 77 75 73 69 66 62 59
40 41 41 42 42 42 42 42 42 42 42 41 41 40 41 42 43 45 47 48 49 51 53 56 58 61 63 65 68 69 71 74 75 77 77 78 76 74 72 69 65 62 59 55
41 41 41 42 42 43 43 43 43 43 42 42 42 41 42 44 45 46 48 50 51 53 55 57 60 63 65 68 69 71 73 75 76 77 77 75 74 71 68 65 61 58 55 52
41 41 42 42 43 43 43 43 43 43 43 43 43 43 44 45 47 48 50 51 53 55 57 60 62 64 67 69 71 73 75 76 77 76 76 73 70 67 64 60 58 55 52 50
40 40 41 42 43 43 43 43 43 44 44 44 44 45 46 47 49 50 52 53 55 57 60 62 64 67 69 71 73 75 75 76 76 75 73 71 67 63 59 57 54 52 51 49
40 40 41 41 42 42 42 43 44 45 45 45 46 47 48 49 50 52 53 55 57 60 62 64 67 69 71 73 74 75 76 76 75 74 71 68 64 60 56 52 50 49 48 47
41 41 41 41 41 42 42 43 44 44 45 46 47 48 49 50 52 53 55 58 60 62 64 67 69 70 72 74 74 75 75 75 73 71 68 64 61 58 54 51 47 45 45 45
40 41 41 41 42 42 43 43 44 45 45 47 48 49 50 52 53 55 58 60 62 64 66 69 70 71 73 74 74 74 74 73 70 67 63 60 57 54 52 49 46 44 42 42
41 41 41 42 42 43 43 44 44 45 46 48 49 51 52 54 56 58 60 62 64 66 68 70 71 72 73 73 74 73 72 69 66 63 59 56 54 52 49 47 45 43 41 40
40 41 41 42 42 42 43 44 45 46 47 49 50 52 54 55 57 59 62 64 66 68 70 72 72 72 73 73 73 71 68 65 62 59 56 53 51 49 47 45 44 42 41 40
39 39 40 40 41 42 43 44 45 47 48 50 52 53 55 57 60 62 64 65 67 69 70 72 72 72 72 72 70 67 64 61 58 56 53 50 48 47 45 44 42 41 39 38
37 38 39 40 41 42 43 44 46 48 50 52 54 56 58 60 62 64 66 67 69 70 70 71 71 71 70 69 66 63 60 57 55 53 50 48 46 45 43 42 41 40 38 37
37 38 39 40 41 43 44 46 48 50 52 54 56 58 60 62 64 66 67 68 70 72 71 71 70 69 67 64 61 59 56 54 52 50 47 45 44 43 42 40 39 38 37 36
37 39 40 42 43 45 47 49 51 53 54 56 58 60 62 64 66 67 69 69 70 71 70 69 68 65 63 60 58 55 53 51 49 47 45 43 42 41 40 39 37 36 35 34
39 40 42 44 45 47 49 51 53 55 56 58 60 62 64 66 67 68 69 71 70 70 69 66 64 62 60 57 54 52 50 48 46 44 43 41 40 39 38 36 35 34 34 33
41 43 44 46 48 49 51 53 55 57 58 60 63 65 67 68 69 70 70 70 69 68 66 63 61 59 57 54 51 49 47 45 44 42 41 39 39 37 35 34 33 32 32 31
44 45 47 49 50 52 53 55 57 59 61 63 65 67 68 69 70 70 70 68 66 65 63 61 59 56 53 51 48 46 44 43 41 39 38 37 36 35 34 32 31 31 30 29
46 48 49 51 53 54 56 58 60 62 64 65 66 68 69 70 69 68 67 65 63 62 60 58 56 53 50 47 45 43 42 40 39 37 35 35 34 33 31 30 29 29 28 28
49 50 52 54 56 58 59 61 63 65 66 66 66 67 68 68 67 65 64 62 60 58 56 54 51 49 46 44 42 40 39 37 36 35 33 33 32 31 29 28 28 27 27 27
51 53 55 57 59 61 63 64 65 66 66 67 67 66 66 64 63 62 60 58 56 54 52 50 47 44 42 40 38 37 35 34 33 31 30 30 30 29 27 27 26 26 26 26
Wind_Direction
256 259 262 263 265 268 272 275 278 281 282 284 283 285 287 287 287 287 288 288 289 290 291 291 292 293 294 296 297 299 300 301 302 303 304 304 305 305 306 306 306 306 306 306
258 261 263 264 267 270 272 275 278 280 283 283 283 284 285 286 287 287 288 289 289 290 290 291 292 294 295 297 298 300 301 302 303 304 305 306 306 307 308 308 308 308 308 308
261 262 265 267 270 271 273 276 278 281 284 283 283 284 285 286 287 287 288 288 289 290 291 292 293 294 296 298 299 301 302 303 304 305 306 307 308 308 309 309 309 310 309 309
263 265 266 270 271 273 274 276 279 281 283 283 284 284 285 286 287 287 288 288 289 290 291 292 294 295 297 299 300 301 303 304 305 306 307 308 309 310 310 311 311 311 310 309
265 268 270 271 274 275 275 276 280 282 282 283 284 285 286 286 287 287 287 288 289 290 291 293 294 296 298 300 301 303 304 306 307 308 309 310 311 311 312 312 312 311 311 310
266 269 272 274 274 276 278 279 280 282 283 284 285 286 287 287 287 287 287 288 289 290 292 294 295 297 299 301 302 304 306 307 308 309 310 311 312 312 313 313 312 312 311 310
267 271 274 277 279 279 280 282 282 283 284 285 286 287 287 288 288 288 288 289 290 292 294 295 297 299 300 302 304 305 307 308 309 310 311 312 313 313 313 313 312 312 311 310
267 270 275 278 279 280 281 283 284 285 286 287 288 287 287 288 288 288 289 290 292 294 296 297 299 300 302 303 305 306 308 309 310 311 312 313 314 314 314 313 312 311 310 309
268 271 274 276 278 280 282 283 284 286 288 289 288 287 288 288 288 289 290 292 294 295 297 298 300 302 303 304 306 307 309 310 311 312 313 314 314 314 314 313 311 310 309 308
269 271 273 275 277 279 281 283 285 287 288 289 288 288 288 289 290 291 292 293 295 296 298 300 301 303 304 305 307 308 310 311 312 313 314 314 314 314 313 312 311 309 308 307
271 272 273 275 277 279 281 283 284 286 288 288 288 288 289 291 292 292 294 295 296 298 299 301 302 304 305 306 308 309 310 311 312 313 314 314 314 314 313 312 310 309 308 307
271 271 273 275 277 279 280 282 283 285 287 287 288 289 290 291 292 293 295 296 297 299 301 302 303 305 306 308 309 310 311 312 313 314 314 314 314 313 312 311 310 308 308 308
271 273 274 276 277 278 279 281 283 285 286 286 288 289 291 292 293 294 295 297 299 300 302 303 304 306 307 309 310 311 312 313 313 314 314 314 313 312 311 310 309 308 307 307
272 274 275 276 276 278 279 281 283 284 285 287 289 290 291 293 294 295 297 298 300 302 303 304 305 307 308 309 310 311 312 313 313 314 314 313 313 312 311 310 308 306 306 306
271 272 274 275 276 278 280 282 283 285 286 288 289 291 292 293 295 296 298 299 301 303 304 305 306 308 309 310 310 311 312 313 313 313 313 312 312 311 310 310 309 307 306 306
270 272 274 276 277 279 280 282 283 285 287 288 290 291 293 294 296 298 299 301 302 304 305 306 307 308 309 310 310 311 312 312 312 312 312 311 311 310 310 309 309 308 307 306
270 272 274 276 277 279 281 282 284 285 287 289 290 292 294 296 297 299 300 302 303 305 306 306 307 308 309 310 310 311 312 311 311 311 310 310 309 309 309 309 308 307 307 306
271 273 275 277 278 280 282 283 285 286 288 290 292 294 295 297 298 300 301 303 304 305 306 307 307 308 309 309 310 310 310 310 309 309 309 309 308 308 308 308 308 307 307 306
273 275 276 278 279 281 282 284 286 288 290 292 293 295 297 298 299 301 302 304 305 305 306 307 307 308 309 309 309 309 309 308 308 309 308 307 307 307 308 307 307 307 307 306
275 276 277 279 281 282 284 286 288 290 292 293 295 297 298 300 301 302 303 304 305 306 307 307 308 308 308 308 308 308 308 307 308 307 307 306 306 307 307 306 307 307 307 306
276 278 279 281 283 285 287 288 290 292 293 295 297 298 299 301 302 303 303 304 305 306 307 307 308 308 308 308 307 307 306 306 306 306 306 306 306 306 306 306 306 306 307 306
278 280 282 284 286 287 289 290 292 294 295 296 298 299 300 301 302 303 304 304 305 305 306 307 307 307 307 307 306 305 305 305 305 305 305 305 305 305 305 305 305 306 307 307
281 283 285 286 288 289 291 293 294 295 296 298 299 300 300 301 302 303 303 304 305 305 305 306 306 306 305 305 304 304 304 304 304 304 303 304 305 305 304 304 304 306 306 306
283 285 287 288 290 291 293 294 295 297 298 299 300 300 301 301 302 303 304 304 304 305 305 305 305 305 304 304 303 302 302 302 302 302 303 304 305 305 304 303 304 305 306 307
286 288 289 291 292 293 294 296 297 297 298 299 300 300 301 302 303 303 303 303 304 304 304 304 304 304 303 302 302 301 301 301 301 301 302 302 303 304 303 303 303 305 306 308
288 290 291 292 294 295 296 296 297 298 298 299 299 300 301 301 302 302 303 303 304 304 304 304 303 302 301 301 300 300 300 299 300 300 301 302 303 303 302 302 303 305 306 308
290 291 292 293 294 296 296 297 298 298 299 299 299 300 300 301 301 302 302 303 303 303 303 303 302 301 300 300 299 299 298 298 299 299 300 301 302 302 302 302 303 304 306 309
Height
5744 5744 5745 5746 5748 5747 5747 5747 5745 5746 5745 5744 5739 5737 5735 5733 5731 5729 5726 5723 5720 5716 5713 5709 5706 5702 5697 5693 5688 5683 5677 5671 5665 5658 5651 5644 5636 5628 5619 5609 5599 5589 5579 5568
5736 5736 5736 5737 5740 5739 5739 5738 5737 5736 5736 5734 5731 5728 5726 5724 5721 5719 5716 5713 5709 5706 5702 5698 5694 5690 5685 5680 5675 5670 5664 5657 5650 5643 5636 5627 5619 5610 5600 5590 5579 5568 5557 5546
5727 5728 5727 5729 5733 5731 5730 5729 5728 5726 5726 5723 5721 5719 5716 5714 5711 5708 5705 5702 5698 5695 5691 5687 5683 5678 5673 5668 5662 5656 5649 5642 5635 5627 5619 5610 5601 5591 5581 5570 5559 5548 5536 5524
5717 5719 5718 5724 5723 5722 5720 5720 5718 5717 5715 5712 5710 5708 5706 5703 5700 5697 5694 5691 5687 5683 5679 5675 5670 5666 5660 5655 5648 5642 5635 5627 5619 5611 5602 5592 5583 5572 5561 5550 5539 5527 5516 5504
5708 5708 5709 5713 5713 5711 5710 5710 5709 5706 5704 5702 5699 5697 5695 5692 5689 5686 5683 5679 5675 5671 5667 5663 5658 5653 5647 5641 5634 5627 5619 5611 5602 5593 5584 5575 5564 5553 5542 5531 5519 5508 5496 5485
5698 5698 5698 5703 5703 5701 5700 5700 5699 5696 5693 5691 5689 5687 5684 5681 5677 5674 5671 5667 5663 5659 5654 5650 5645 5639 5633 5627 5619 5612 5604 5595 5586 5576 5566 5556 5545 5534 5522 5511 5500 5489 5478 5467
5688 5687 5688 5691 5690 5689 5690 5689 5687 5685 5683 5680 5678 5676 5673 5669 5666 5662 5658 5655 5651 5646 5641 5636 5631 5625 5619 5612 5604 5596 5588 5579 5569 5558 5548 5537 5526 5515 5503 5492 5482 5472 5462 5452
5679 5678 5681 5680 5679 5678 5677 5676 5674 5672 5671 5669 5666 5663 5660 5657 5654 5650 5646 5642 5638 5634 5628 5622 5617 5611 5604 5597 5589 5581 5572 5562 5552 5541 5530 5519 5508 5497 5485 5474 5464 5454 5445 5437
5670 5671 5670 5668 5667 5666 5665 5664 5662 5661 5659 5657 5654 5651 5648 5645 5641 5638 5634 5630 5625 5620 5615 5609 5602 5595 5588 5581 5573 5564 5555 5545 5534 5524 5512 5501 5490 5479 5468 5457 5447 5438 5430 5422
5658 5659 5658 5657 5656 5655 5653 5652 5651 5649 5647 5644 5642 5639 5636 5633 5629 5625 5621 5617 5612 5607 5601 5595 5588 5580 5572 5565 5556 5547 5538 5528 5517 5507 5496 5484 5472 5461 5451 5440 5431 5423 5415 5408
5647 5647 5646 5645 5644 5643 5642 5641 5639 5637 5635 5632 5629 5627 5623 5620 5616 5612 5608 5603 5598 5593 5587 5580 5573 5565 5557 5548 5539 5530 5521 5510 5500 5489 5478 5468 5457 5445 5435 5426 5415 5407 5401 5394
5636 5636 5635 5634 5633 5632 5630 5629 5627 5625 5623 5620 5617 5614 5611 5607 5603 5599 5594 5589 5584 5578 5571 5564 5557 5549 5540 5531 5522 5512 5503 5492 5482 5471 5461 5450 5441 5432 5421 5412 5403 5394 5386 5380
5624 5623 5623 5622 5621 5620 5618 5617 5615 5613 5610 5608 5605 5601 5598 5594 5590 5585 5580 5575 5569 5563 5556 5548 5540 5532 5523 5514 5504 5494 5484 5474 5464 5453 5443 5433 5424 5416 5409 5401 5392 5383 5375 5368
5612 5611 5611 5610 5609 5608 5606 5604 5602 5600 5598 5595 5592 5589 5585 5581 5577 5571 5566 5560 5554 5547 5540 5531 5523 5515 5505 5496 5486 5476 5466 5456 5446 5436 5427 5417 5408 5400 5393 5386 5380 5373 5365 5358
5600 5599 5599 5598 5597 5595 5594 5592 5590 5588 5585 5582 5579 5575 5572 5567 5562 5557 5551 5544 5538 5531 5523 5515 5507 5498 5488 5478 5469 5459 5449 5439 5429 5420 5411 5402 5394 5386 5379 5372 5366 5360 5354 5348
5588 5587 5586 5585 5584 5583 5581 5580 5578 5575 5572 5569 5566 5562 5558 5553 5548 5542 5535 5528 5522 5515 5506 5498 5490 5480 5471 5461 5452 5443 5433 5423 5413 5404 5396 5388 5381 5373 5367 5360 5354 5348 5342 5337
5576 5575 5575 5574 5573 5571 5569 5567 5565 5562 5559 5556 5552 5548 5544 5538 5533 5527 5520 5513 5505 5497 5488 5480 5472 5463 5453 5443 5434 5425 5417 5408 5399 5390 5382 5375 5368 5361 5355 5348 5342 5337 5331 5325
5565 5564 5563 5563 5561 5560 5557 5555 5553 5550 5546 5543 5539 5534 5529 5523 5518 5511 5505 5497 5490 5482 5472 5462 5454 5445 5436 5426 5417 5409 5400 5392 5385 5377 5370 5363 5356 5349 5343 5337 5331 5326 5321 5315
5554 5553 5552 5551 5549 5547 5545 5543 5540 5536 5533 5529 5524 5519 5514 5508 5501 5495 5488 5480 5472 5464 5457 5447 5437 5428 5419 5410 5400 5393 5385 5378 5371 5364 5357 5351 5344 5338 5332 5326 5321 5315 5310 5305
5543 5542 5540 5539 5537 5535 5533 5530 5526 5523 5518 5514 5509 5504 5498 5491 5484 5477 5471 5463 5454 5445 5438 5429 5420 5411 5402 5394 5385 5377 5370 5363 5357 5351 5345 5339 5333 5327 5321 5316 5310 5305 5300 5295
5532 5530 5529 5527 5525 5522 5519 5516 5512 5508 5504 5498 5493 5487 5481 5475 5467 5460 5453 5446 5438 5427 5420 5411 5402 5394 5386 5378 5371 5363 5357 5350 5344 5338 5333 5327 5322 5316 5311 5306 5301 5296 5291 5286
5520 5519 5517 5515 5512 5509 5505 5501 5497 5493 5488 5482 5476 5470 5464 5457 5450 5443 5435 5426 5419 5411 5402 5394 5386 5378 5370 5363 5356 5350 5343 5337 5332 5326 5321 5316 5311 5306 5301 5296 5291 5287 5282 5277
5508 5506 5504 5501 5498 5495 5491 5486 5482 5477 5471 5466 5459 5452 5445 5439 5431 5424 5418 5410 5400 5393 5385 5377 5369 5362 5355 5348 5342 5336 5330 5325 5319 5315 5310 5305 5300 5295 5290 5286 5282 5278 5273 5269
5495 5493 5490 5487 5484 5480 5476 5471 5466 5460 5454 5448 5441 5433 5426 5420 5414 5405 5397 5391 5383 5375 5367 5360 5353 5346 5339 5333 5328 5323 5318 5312 5308 5303 5299 5294 5290 5285 5281 5277 5273 5269 5265 5260
5481 5478 5475 5472 5468 5464 5460 5455 5450 5444 5437 5431 5424 5416 5407 5400 5393 5387 5379 5372 5365 5357 5351 5344 5337 5331 5325 5319 5314 5310 5305 5300 5296 5292 5288 5284 5280 5276 5272 5268 5264 5261 5257 5253
5467 5464 5460 5456 5451 5447 5442 5437 5432 5426 5419 5413 5407 5398 5390 5382 5374 5368 5361 5355 5348 5341 5334 5328 5323 5317 5311 5306 5302 5297 5293 5289 5285 5282 5278 5274 5271 5267 5263 5260 5256 5252 5249 5245
5452 5448 5444 5440 5435 5429 5424 5418 5413 5407 5400 5393 5387 5380 5372 5365 5357 5350 5344 5338 5332 5325 5319 5314 5308 5303 5299 5294 5290 5286 5282 5279 5275 5272 5269 5265 5262 5258 5255 5252 5248 5245 5241 5238